FW0523 Weather Reports


time (UTC)temp
F
wind
direction
speed
knots
gust
knots
rain 1hr
in
rain 24hr
in
rain mn
in
humidity
%
barometer
mb
20260906233502 77 1 0.0 5.2 0.00 0.00 0.00 27 1025.5
20260906232503 77 20 0.9 4.3 0.00 0.00 0.00 26 1025.3
20260906231503 77 344 0.9 9.6 0.00 0.00 0.00 27 1024.9
20260906230504 78 7 4.3 7.0 0.00 0.00 0.00 25 1025.2
20260906225504 78 4 3.5 7.8 0.00 0.00 0.00 24 1024.9
20260906224502 78 20 3.5 7.8 0.00 0.00 0.00 23 1024.8
20260906222404 79 295 1.7 4.3 0.00 0.00 0.00 22 1024.8
20260906221402 80 340 0.9 9.6 0.00 0.00 0.00 21 1024.8
20260906220402 81 52 0.9 7.0 0.00 0.00 0.00 21 1024.8
20260906215403 80 155 0.0 0.9 0.00 0.00 0.00 22 1024.9
20260906214403 80 154 0.0 3.5 0.00 0.00 0.00 23 1025.1
20260906211204 80 360 1.7 7.8 0.00 0.00 0.00 22 1025.5
20260906210204 80 360 1.7 8.7 0.00 0.00 0.00 22 1025.6
20260906205203 80 360 1.7 7.8 0.00 0.00 0.00 21 1025.7
20260906203102 78 45 1.7 3.5 0.00 0.00 0.00 22 1026.0
20260906202103 77 21 0.9 2.6 0.00 0.00 0.00 23 1026.3
20260906201103 77 6 0.0 4.3 0.00 0.00 0.00 23 1026.3
20260906200103 77 340 2.6 7.0 0.00 0.00 0.00 23 1026.4
20260906195104 77 1 1.7 4.3 0.00 0.00 0.00 21 1026.4
20260906194104 77 44 0.9 6.1 0.00 0.00 0.00 21 1026.4
20260906193102 77 357 1.7 5.2 0.00 0.00 0.00 21 1026.5
20260906192102 77 316 3.5 4.3 0.00 0.00 0.00 22 1026.5
20260906191103 77 0 0.0 3.5 0.00 0.00 0.00 22 1026.5
20260906185003 78 340 1.7 3.5 0.00 0.00 0.00 20 1026.8
20260906184003 78 344 1.7 7.8 0.00 0.00 0.00 19 1026.9
20260906181903 76 333 2.6 7.8 0.00 0.00 0.00 21 1027.3
20260906180903 76 357 2.6 8.7 0.00 0.00 0.00 22 1027.6
20260906175903 76 16 3.5 6.1 0.00 0.00 0.00 21 1027.7
20260906174904 76 346 1.7 7.8 0.00 0.00 0.00 21 1027.9
20260906173902 76 360 2.6 4.3 0.00 0.00 0.00 21 1028.0
20260906172904 76 13 1.7 6.1 0.00 0.00 0.00 20 1028.0
20260906170802 75 3 2.6 6.1 0.00 0.00 0.00 22 1028.3
20260906165803 74 16 1.7 6.1 0.00 0.00 0.00 23 1028.3
20260906164803 74 3 1.7 5.2 0.00 0.00 0.00 23 1028.4
20260906163803 72 1 0.9 2.6 0.00 0.00 0.00 25 1028.4
20260906162803 71 3 0.0 0.0 0.00 0.00 0.00 26 1028.4
20260906161803 69 3 0.0 0.0 0.00 0.00 0.00 30 1028.4
20260906160802 68 3 0.0 0.9 0.00 0.00 0.00 36 1028.5
20260906155805 67 58 1.7 0.9 0.00 0.00 0.00 37 1028.7
20260906154804 66 192 0.0 0.0 0.00 0.00 0.00 36 1028.7
20260906152704 64 192 0.0 3.5 0.00 0.00 0.00 41 1028.8
20260906151702 63 152 0.0 1.7 0.00 0.00 0.00 42 1028.9
20260906150703 61 212 0.9 5.2 0.00 0.00 0.00 43 1029.1
20260906145703 60 119 1.7 6.1 0.00 0.00 0.00 46 1029.2
20260906144704 58 360 3.5 7.8 0.00 0.00 0.00 49 1029.2
20260906143703 56 181 2.6 7.8 0.00 0.00 0.00 52 1029.5
20260906142703 56 200 3.5 6.1 0.00 0.00 0.00 51 1029.6
20260906140604 56 216 0.0 5.2 0.00 0.00 0.00 52 1029.9
20260906134504 55 165 0.0 7.8 0.00 0.00 0.00 53 1029.7
20260906133502 55 319 0.0 7.8 0.00 0.00 0.00 53 1029.7
20260906132503 55 222 0.9 7.8 0.00 0.00 0.00 54 1029.5
20260906131504 55 164 0.0 3.5 0.00 0.00 0.00 54 1029.3
20260906130502 55 164 1.7 7.0 0.00 0.00 0.00 54 1029.2
20260906124402 56 360 2.6 3.5 0.00 0.00 0.00 51 1028.9
20260906123403 56 195 0.9 5.2 0.00 0.00 0.00 52 1028.8
20260906122404 56 161 0.9 7.0 0.00 0.00 0.00 53 1028.9
20260906121404 55 216 0.9 6.1 0.00 0.00 0.00 54 1028.8
20260906120403 55 143 1.7 7.8 0.00 0.00 0.00 54 1028.7
20260906115404 55 179 0.9 7.0 0.00 0.00 0.00 54 1028.5
20260906114404 56 144 0.0 1.7 0.00 0.00 0.00 54 1028.4
20260906113403 56 112 0.9 2.6 0.00 0.00 0.00 53 1028.3
20260906112404 56 360 1.7 5.2 0.00 0.00 0.00 53 1028.5
20260906111404 56 107 2.6 8.7 0.00 0.00 0.00 53 1028.4
20260906110403 56 172 2.6 4.3 0.00 0.00 0.00 53 1028.4
20260906104303 56 171 0.0 3.5 0.00 0.00 0.00 53 1028.4
20260906103303 56 220 0.0 3.5 0.00 0.00 0.00 53 1028.4
20260906102306 56 90 0.0 4.3 0.00 0.00 0.00 52 1028.3
20260906101303 57 164 0.9 7.8 0.00 0.00 0.00 51 1028.3
20260906100303 57 178 1.7 1.7 0.00 0.00 0.00 51 1028.4
20260906095306 57 339 0.9 8.7 0.00 0.00 0.00 51 1028.1
20260906094302 57 179 1.7 8.7 0.00 0.00 0.00 51 1028.0
20260906093303 57 143 0.0 8.7 0.00 0.00 0.00 50 1028.1
20260906092306 57 220 1.7 6.1 0.00 0.00 0.00 50 1028.3
20260906090202 57 360 4.3 7.0 0.00 0.00 0.00 50 1028.3
20260906085205 57 209 0.9 6.1 0.00 0.00 0.00 50 1028.1
20260906084203 57 119 0.9 7.0 0.00 0.00 0.00 50 1028.1
20260906083204 57 219 0.0 8.7 0.00 0.00 0.00 50 1028.3
20260906082202 57 162 0.0 6.1 0.00 0.00 0.00 50 1028.4
20260906080103 57 210 2.6 6.1 0.00 0.00 0.00 49 1028.5
20260906075103 57 360 1.7 7.8 0.00 0.00 0.00 50 1028.5
20260906074102 57 195 1.7 7.0 0.00 0.00 0.00 50 1028.7
20260906073103 57 113 1.7 4.3 0.00 0.00 0.00 49 1028.7
20260906072103 58 241 0.0 2.6 0.00 0.00 0.00 49 1028.8
20260906071104 58 195 0.0 1.7 0.00 0.00 0.00 48 1028.8
20260906065103 58 143 1.7 7.0 0.00 0.00 0.00 48 1028.8
20260906064104 58 224 2.6 8.7 0.00 0.00 0.00 48 1028.7
20260906063102 58 360 0.0 8.7 0.00 0.00 0.00 48 1028.8
20260906062103 59 131 0.0 3.5 0.00 0.00 0.00 48 1028.8
20260906061105 59 205 0.9 5.2 0.00 0.00 0.00 47 1028.7
20260906055103 59 223 0.0 1.7 0.00 0.00 0.00 47 1028.5
20260906054103 59 175 1.7 3.5 0.00 0.00 0.00 47 1028.5
20260906053104 60 175 0.9 7.0 0.00 0.00 0.00 46 1028.7
20260906052103 60 223 0.9 1.7 0.00 0.00 0.00 46 1028.8
20260906051103 60 175 0.9 6.1 0.00 0.00 0.00 45 1028.8
20260906050104 61 152 0.9 7.8 0.00 0.00 0.00 45 1028.7
20260906045102 61 162 1.7 7.8 0.00 0.00 0.00 45 1028.7
20260906044103 61 360 0.9 1.7 0.00 0.00 0.00 45 1028.7
20260906043103 62 209 0.9 6.1 0.00 0.00 0.00 45 1028.7
20260906042104 62 230 1.7 4.3 0.00 0.00 0.00 44 1028.7
20260906041103 62 184 0.9 2.6 0.00 0.00 0.00 44 1028.5
20260906035003 63 248 0.9 5.2 0.00 0.00 0.00 45 1028.5
20260906034004 63 133 0.0 1.7 0.00 0.00 0.00 44 1028.4
20260906033002 63 275 0.0 6.1 0.00 0.00 0.00 44 1028.4
20260906032003 63 114 0.0 1.7 0.00 0.00 0.00 44 1028.1
20260906031004 64 200 0.0 7.0 0.00 0.00 0.00 44 1028.0
20260906030002 64 185 0.9 1.7 0.00 0.00 0.00 43 1027.9
20260906025003 65 161 0.0 0.0 0.00 0.00 0.00 43 1027.7
20260906024003 65 138 0.0 2.6 0.00 0.00 0.00 43 1027.6
20260906023004 66 141 1.7 1.7 0.00 0.00 0.00 42 1027.3
20260906022002 66 241 1.7 5.2 0.00 0.00 0.00 42 1027.2
20260906021003 67 134 1.7 0.0 0.00 0.00 0.00 41 1027.1
20260906020004 68 360 0.0 7.8 0.00 0.00 0.00 41 1026.9
20260906015002 69 268 0.0 0.0 0.00 0.00 0.00 40 1026.8
20260906014003 69 260 0.0 1.7 0.00 0.00 0.00 39 1026.8
20260906013003 70 59 0.0 0.0 0.00 0.00 0.00 39 1026.7
20260906012004 71 59 0.0 0.0 0.00 0.00 0.00 37 1026.7
20260906011002 72 59 0.0 0.0 0.00 0.00 0.00 36 1026.5
20260906010002 72 210 0.0 5.2 0.00 0.00 0.00 35 1026.5
20260906005003 73 80 0.0 0.0 0.00 0.00 0.00 33 1026.5
20260906004003 74 80 0.0 1.7 0.00 0.00 0.00 33 1026.5
20260906003003 74 120 0.0 1.7 0.00 0.00 0.00 31 1026.4
20260906002004 75 23 0.9 4.3 0.00 0.00 0.00 30 1026.3
20260906001002 75 3 0.9 4.3 0.00 0.00 0.00 29 1026.1
20260906000003 75 48 0.0 2.6 0.00 0.00 0.00 30 1026.1
20260905235003 76 10 0.0 4.3 0.00 0.00 0.00 29 1026.0
20260905234003 76 24 0.0 1.7 0.00 0.00 0.00 28 1026.0